Find Starlink 2071

NORAD ID: 47361 Int'l Des: 2021-005 Owner: SPXS Country: US Constellation: starlink operational
LEOCIRCULARSTARLINK_TYPE

現在のビュー

3D地球を読み込み中...

About Starlink 2071

Starlink 2071 (NORAD 47361) is a starlink constellation satellite (v1.0) launched Jan 20, 2021 by SPXS of US. It operates in LEO, CIRCULAR, STARLINK_TYPE orbit with a mass of 260.00 kg.

Starlink 2071について

説明を読み込み中...

次回通過

Passes for default location (London). Set your location on the main map for personalized predictions.

高度履歴

Loading altitude history...

軌道要素

1 47361U 21005N 26170.25002315 .00058986 00000-0 18981-2 0 9998
2 47361 53.1580 284.9605 0000726 89.9423 160.1082 15.31690996 5708
Epoch: Jun 19, 2026 • Age: 4 hours

現在のステータス

高度 476.1 km
速度 7.63 km/s
衛星直下点 50.04°N, 69.6°W
打ち上げ日 Jan 20, 2021
運用期間 5.4 years
タイプ internet

技術仕様

分類 Payload
質量 260.00 kg
乾燥質量 248.00 kg
総質量 260.00 kg
長さ 0.20 m
直径 2.80 m
スパン 9.00 m
形状 Box + pan
製造者 SPXS
バスタイプ Starlink
フェーズステータス In Orbit
所有者/国 SPXS/US

Most Searched